Weather History for Oxford, CT

Change the Weather History Date:

Thursday, October 25, 2012

  Actual Average Record
Temperature  
Mean Temperature 54 °F -  
Max Temperature 57 °F 54 °F 75 °F (2001)
Min Temperature 51 °F 37 °F 26 °F (2003)
Degree Days  
Heating Degree Days 11    
Growing Degree Days 4 (Base 50)    
Moisture  
Dew Point 43 °F    
Average Humidity 68    
Maximum Humidity 76    
Minimum Humidity 48    
Precipitation  
Precipitation 0.00 in - - ()
Sea Level Pressure  
Sea Level Pressure 30.27 in    
Wind  
Wind Speed 1 mph (SSE)    
Max Wind Speed 7 mph    
Max Gust Speed -    
Visibility 10 miles    
Events      
Averages and records for this station are not official NWS values.
T = Trace of Precipitation, MM = Missing Value Source: NWS Daily Summary

Daily Weather History Graph

Daily Weather History Graph

Search for Another Location

Airport:

Trip Planner

Search our weather history database for the weather conditions in past years. The results will help you decide how hot, cold, wet, or windy it might be!

Date:

Astronomy

Oct. 25, 2012 Rise Set
Actual Time 7:16 AM EDT 5:56 PM EDT
Civil Twilight 6:48 AM EDT 6:24 PM EDT
Nautical Twilight 6:15 AM EDT 6:56 PM EDT
Astronomical Twilight 5:43 AM EDT 7:28 PM EDT
Moon 3:43 PM EDT (10/25) 3:07 AM EDT (10/25)
Length of Visible Light 11h 36m
Length of Day
10h 39m
Waxing Gibbous, 84% of the Moon is Illuminated
Oct 25
Waxing Gibbous
Oct 29
Full
Nov 6
Last Quarter
Nov 13
New
Nov 20
First Quarter

Hourly Weather History & Observations

Time (EDT) Temp. Dew Point Humidity Pressure Visibility Wind Dir Wind Speed Gust Speed Precip Events Conditions
12:15 AM 51.8 °F 42.8 °F 71% 30.23 in 10.0 mi Calm Calm - N/A   Overcast
12:35 AM 51.8 °F 42.8 °F 71% 30.24 in 10.0 mi Calm Calm - N/A   Overcast
12:55 AM 51.8 °F 44.6 °F 76% 30.24 in 10.0 mi Calm Calm - N/A   Overcast
1:35 AM 51.8 °F 42.8 °F 71% 30.24 in 10.0 mi Calm Calm - N/A   Overcast
1:55 AM 51.8 °F 44.6 °F 76% 30.24 in 10.0 mi Calm Calm - N/A   Overcast
2:35 AM 51.8 °F 42.8 °F 71% 30.25 in 10.0 mi Calm Calm - N/A   Overcast
2:55 AM 51.8 °F 41.0 °F 67% 30.25 in 10.0 mi Calm Calm - N/A   Overcast
3:35 AM 51.8 °F 42.8 °F 71% 30.25 in 10.0 mi NNE 3.5 mph - N/A   Overcast
3:55 AM 51.8 °F 41.0 °F 67% 30.24 in 10.0 mi Calm Calm - N/A   Overcast
4:15 AM 51.8 °F 39.2 °F 62% 30.24 in 10.0 mi Calm Calm - N/A   Overcast
4:35 AM 51.8 °F 39.2 °F 62% 30.24 in 10.0 mi Calm Calm - N/A   Overcast
4:55 AM 51.8 °F 41.0 °F 67% 30.24 in 10.0 mi Calm Calm - N/A   Overcast
5:15 AM 51.8 °F 41.0 °F 67% 30.25 in 10.0 mi Calm Calm - N/A   Overcast
5:35 AM 51.8 °F 41.0 °F 67% 30.25 in 10.0 mi Calm Calm - N/A   Overcast
5:45 AM 51.8 °F 41.0 °F 67% 30.25 in 10.0 mi Calm Calm - N/A   Overcast
5:55 AM 51.8 °F 39.2 °F 62% 30.26 in 10.0 mi Calm Calm - N/A   Overcast
7:45 AM 51.8 °F 42.8 °F 71% 30.28 in 10.0 mi Calm Calm - N/A   Overcast
8:45 AM 51.8 °F 41.0 °F 67% 30.29 in 10.0 mi Calm Calm - N/A   Overcast
9:45 AM 51.8 °F 41.0 °F 67% 30.30 in 10.0 mi SSE 5.8 mph - N/A   Overcast
10:45 AM 53.6 °F 41.0 °F 62% 30.31 in 10.0 mi SSE 4.6 mph - N/A   Overcast
11:55 AM 55.4 °F 39.2 °F 54% 30.31 in 10.0 mi SE 5.8 mph - N/A   Overcast
12:45 PM 55.4 °F 41.0 °F 58% 30.30 in 10.0 mi East 3.5 mph - N/A   Overcast
1:45 PM 57.2 °F 37.4 °F 48% 30.29 in 10.0 mi Calm Calm - N/A   Mostly Cloudy
2:45 PM 57.2 °F 41.0 °F 55% 30.28 in 10.0 mi SSW 6.9 mph - N/A   Overcast
3:55 PM 57.2 °F 44.6 °F 63% 30.28 in 10.0 mi SSE 5.8 mph - N/A   Mostly Cloudy
4:45 PM 57.2 °F 44.6 °F 63% 30.28 in 10.0 mi South 5.8 mph - N/A   Overcast
5:45 PM 55.4 °F 46.4 °F 72% 30.29 in 10.0 mi South 4.6 mph - N/A   Overcast
6:45 PM 55.4 °F 46.4 °F 72% 30.30 in 10.0 mi Calm Calm - N/A   Overcast
7:50 PM 55.4 °F 46.4 °F 72% 30.29 in 10.0 mi Calm Calm - N/A   Overcast
9:15 PM 55.4 °F 46.4 °F 72% 30.28 in 10.0 mi Calm Calm - N/A   Overcast
9:35 PM 55.4 °F 46.4 °F 72% 30.28 in 10.0 mi SSE 3.5 mph - N/A   Overcast
9:55 PM 55.4 °F 46.4 °F 72% 30.28 in 10.0 mi South 3.5 mph - N/A   Overcast
10:15 PM 55.4 °F 46.4 °F 72% 30.28 in 10.0 mi SSE 4.6 mph - N/A   Overcast
10:35 PM 55.4 °F 46.4 °F 72% 30.27 in 10.0 mi SSE 4.6 mph - N/A   Overcast
10:55 PM 55.4 °F 46.4 °F 72% 30.27 in 10.0 mi South 4.6 mph - N/A   Overcast
11:15 PM 55.4 °F 46.4 °F 72% 30.27 in 10.0 mi South 4.6 mph - N/A   Overcast
11:35 PM 55.4 °F 46.4 °F 72% 30.27 in 10.0 mi South 5.8 mph - N/A   Overcast
11:55 PM 55.4 °F 46.4 °F 72% 30.27 in 10.0 mi South 4.6 mph - N/A   Overcast